This is the latest recevied weather packets stored in our database for station/object WD7OO. If no packets are shown the sender has not sent any weather packets the latest 10 day(s).
| Time | Temp. | Humidity | Pressure | Rain* | Wind** | Luminosity | Snow |
|---|---|---|---|---|---|---|---|
| 1778166540 | 10.56° C | 53% | 1015.9 hPa | 0 mm | - | 746 W/m² | - |
| 1778166236 | 10° C | 55% | 1015.6 hPa | 0 mm | - | 740 W/m² | - |
| 1778165933 | 10° C | 55% | 1015.6 hPa | 0 mm | - | 790 W/m² | - |
| 1778165629 | 10° C | 53% | 1015.6 hPa | 0 mm | - | 775 W/m² | - |
| 1778165326 | 9.44° C | 52% | 1015.7 hPa | 0 mm | - | 747 W/m² | - |
| 1778165023 | 9.44° C | 56% | 1015.8 hPa | 0 mm | - | 706 W/m² | - |
| 1778164720 | 10° C | 55% | 1015.6 hPa | 0 mm | - | 684 W/m² | - |
| 1778164417 | 9.44° C | 56% | 1015.4 hPa | 0 mm | - | 691 W/m² | - |
| 1778164113 | 9.44° C | 55% | 1015.7 hPa | 0 mm | - | 662 W/m² | - |
| 1778163810 | 9.44° C | 58% | 1015.8 hPa | 0 mm | - | 637 W/m² | - |
| 1778163507 | 9.44° C | 56% | 1015.8 hPa | 0 mm | - | 592 W/m² | - |
| 1778163203 | 8.89° C | 58% | 1015.8 hPa | 0 mm | - | 567 W/m² | - |
| 1778162900 | 8.89° C | 57% | 1015.6 hPa | 0 mm | - | 568 W/m² | - |
| 1778162597 | 8.89° C | 60% | 1015.5 hPa | 0 mm | - | 578 W/m² | - |
| 1778162295 | 8.89° C | 57% | 1015.9 hPa | 0 mm | - | 563 W/m² | - |
| 1778161991 | 8.33° C | 57% | 1015.7 hPa | 0 mm | - | 514 W/m² | - |
| 1778161689 | 8.33° C | 59% | 1015.7 hPa | 0 mm | - | 501 W/m² | - |
| 1778161384 | 8.33° C | 57% | 1015.5 hPa | 0 mm | - | 450 W/m² | - |
| 1778161080 | 8.33° C | 60% | 1015.4 hPa | 0 mm | - | 443 W/m² | - |
| 1778160776 | 8.33° C | 62% | 1015.6 hPa | 0 mm | - | 393 W/m² | - |
| 1778160475 | 7.78° C | 62% | 1015.6 hPa | 0 mm | - | 348 W/m² | - |
| 1778160171 | 7.78° C | 64% | 1015.7 hPa | 0 mm | - | 338 W/m² | - |
| 1778159868 | 7.78° C | 61% | 1015.7 hPa | 0 mm | - | 333 W/m² | - |
| 1778159565 | 7.78° C | 60% | 1015.7 hPa | 0 mm | - | 306 W/m² | - |
| 1778159261 | 7.78° C | 61% | 1015.7 hPa | 0 mm | - | 286 W/m² | - |
* Rain latest hour (hover to see other rain measurements)
** Current wind speed in m/s (hover to see current wind gust speed)